,,,PA_Meas_PMT16A,,PR_Meas_QMR101_102,,RH_Meas_QMH101,,SR_Meas_QMS101,,TA_Meas_QMH101,,GenWind,,GenWind,
date,time,status,PA,status,PR,status,RH,status,SR,status,TA,status,DirAvg,status,SpdAvg,
2009-09-11, 00:00:05,VALID,1009.36,VALID,0,VALID,97.1826,VALID,0.105969,VALID,24.7464,VALID,13,VALID,0,
2009-09-11, 00:01:05,VALID,1009.34,VALID,0,VALID,97.1902,VALID,0,VALID,24.7464,VALID,13,VALID,0,
2009-09-11, 00:02:05,VALID,1009.33,VALID,0,VALID,97.2131,VALID,0,VALID,24.7269,VALID,13,VALID,0,
2009-09-11, 00:03:05,VALID,1009.37,VALID,0,VALID,97.2055,VALID,0,VALID,24.7055,VALID,13,VALID,0,
2009-09-11, 00:04:05,VALID,1009.37,VALID,0,VALID,97.2207,VALID,0,VALID,24.7074,VALID,13,VALID,0,
2009-09-11, 00:05:05,VALID,1009.37,VALID,0,VALID,97.1902,VALID,0,VALID,24.686,VALID,13,VALID,0,
2009-09-11, 00:06:05,VALID,1009.38,VALID,0,VALID,97.1902,VALID,0,VALID,24.7269,VALID,13,VALID,0,
2009-09-11, 00:07:05,VALID,1009.37,VALID,0,VALID,97.1674,VALID,0,VALID,24.7074,VALID,13,VALID,0,
2009-09-11, 00:08:05,VALID,1009.38,VALID,0,VALID,97.1826,VALID,0,VALID,24.7269,VALID,13,VALID,0,
2009-09-11, 00:09:05,VALID,1009.38,VALID,0,VALID,97.1445,VALID,0,VALID,24.7659,VALID,13,VALID,0,
2009-09-11, 00:10:05,VALID,1009.41,VALID,0,VALID,97.1216,VALID,0,VALID,24.764,VALID,12,VALID,0,
2009-09-11, 00:11:05,VALID,1009.4,VALID,0,VALID,97.1216,VALID,0,VALID,24.8049,VALID,12,VALID,0,
2009-09-11, 00:12:05,VALID,1009.4,VALID,0,VALID,97.0987,VALID,0,VALID,24.8049,VALID,242,VALID,0,
2009-09-11, 00:13:05,VALID,1009.39,VALID,0,VALID,97.114,VALID,0,VALID,24.8438,VALID,245,VALID,0,
2009-09-11, 00:14:05,VALID,1009.36,VALID,0,VALID,97.114,VALID,0,VALID,24.8438,VALID,248,VALID,0,
2009-09-11, 00:15:05,VALID,1009.33,VALID,0,VALID,97.1216,VALID,0,VALID,24.8615,VALID,248,VALID,0,
2009-09-11, 00:16:05,VALID,1009.3,VALID,0,VALID,97.1216,VALID,0,VALID,24.9023,VALID,248,VALID,0,
2009-09-11, 00:17:05,VALID,1009.27,VALID,0,VALID,97.1292,VALID,0,VALID,24.9023,VALID,248,VALID,0,
2009-09-11, 00:18:05,VALID,1009.23,VALID,0,VALID,97.1368,VALID,0,VALID,24.9023,VALID,248,VALID,0,
2009-09-11, 00:19:05,VALID,1009.2,VALID,0,VALID,97.1445,VALID,0,VALID,24.9023,VALID,248,VALID,0,
2009-09-11, 00:20:05,VALID,1009.18,VALID,0,VALID,97.1445,VALID,0,VALID,24.9413,VALID,248,VALID,0,
2009-09-11, 00:21:05,VALID,1009.16,VALID,0,VALID,97.1521,VALID,0,VALID,24.9413,VALID,240,VALID,0.722656,
2009-09-11, 00:22:05,VALID,1009.18,VALID,0,VALID,97.1292,VALID,0,VALID,24.9803,VALID,237,VALID,0.204297,
2009-09-11, 00:23:05,VALID,1009.14,VALID,0,VALID,97.1521,VALID,0,VALID,24.9803,VALID,237,VALID,0,
2009-09-11, 00:24:05,VALID,1009.16,VALID,0,VALID,97.1597,VALID,0,VALID,24.9803,VALID,220,VALID,0.620703,
2009-09-11, 00:25:05,VALID,1009.15,VALID,0,VALID,97.1826,VALID,0.105969,VALID,25.0388,VALID,208,VALID,0.589063,
2009-09-11, 00:26:05,VALID,1009.16,VALID,0,VALID,97.1674,VALID,0,VALID,25.0583,VALID,209,VALID,0.0449219,
2009-09-11, 00:27:05,VALID,1009.16,VALID,0,VALID,97.1979,VALID,0,VALID,25.0388,VALID,208,VALID,0.258203,
2009-09-11, 00:28:05,VALID,1009.12,VALID,0,VALID,97.2436,VALID,0,VALID,25.0388,VALID,208,VALID,0.252734,
2009-09-11, 00:29:05,VALID,1009.12,VALID,0,VALID,97.2665,VALID,0,VALID,25.0583,VALID,208,VALID,0.216797,
2009-09-11, 00:30:05,VALID,1009.13,VALID,0,VALID,97.2512,VALID,0,VALID,25.0583,VALID,208,VALID,0,
2009-09-11, 00:31:05,VALID,1009.14,VALID,0,VALID,97.2894,VALID,0,VALID,25.0388,VALID,208,VALID,0.0738281,
2009-09-11, 00:32:05,VALID,1009.13,VALID,0,VALID,97.2894,VALID,0,VALID,25.0583,VALID,208,VALID,0,
2009-09-11, 00:33:05,VALID,1009.16,VALID,0,VALID,97.2589,VALID,0,VALID,25.0778,VALID,208,VALID,0,
2009-09-11, 00:34:05,VALID,1009.15,VALID,0,VALID,97.2741,VALID,0,VALID,25.0973,VALID,208,VALID,0,
2009-09-11, 00:35:05,VALID,1009.2,VALID,0,VALID,97.2741,VALID,0,VALID,25.0973,VALID,208,VALID,0,
2009-09-11, 00:36:05,VALID,1009.16,VALID,0,VALID,97.2817,VALID,0,VALID,25.0778,VALID,209,VALID,0,
2009-09-11, 00:37:05,VALID,1009.2,VALID,0,VALID,97.297,VALID,0,VALID,25.0564,VALID,221,VALID,0,
2009-09-11, 00:38:05,VALID,1009.18,VALID,0,VALID,97.3199,VALID,0,VALID,25.0583,VALID,221,VALID,0,
2009-09-11, 00:39:05,VALID,1009.19,VALID,0,VALID,97.3351,VALID,0,VALID,25.0388,VALID,221,VALID,0,
2009-09-11, 00:40:05,VALID,1009.23,VALID,0,VALID,97.3427,VALID,0,VALID,25.0174,VALID,221,VALID,0,
2009-09-11, 00:41:05,VALID,1009.22,VALID,0,VALID,97.3504,VALID,0,VALID,24.9998,VALID,221,VALID,0,
2009-09-11, 00:42:05,VALID,1009.26,VALID,0,VALID,97.3427,VALID,0,VALID,24.9803,VALID,328,VALID,0,
2009-09-11, 00:43:05,VALID,1009.25,VALID,0,VALID,97.3885,VALID,0,VALID,24.9608,VALID,336,VALID,0,
2009-09-11, 00:44:05,VALID,1009.25,VALID,0,VALID,97.3656,VALID,0,VALID,24.9023,VALID,336,VALID,0,
2009-09-11, 00:45:05,VALID,1009.23,VALID,0,VALID,97.3656,VALID,0,VALID,24.9023,VALID,336,VALID,0,
2009-09-11, 00:46:05,VALID,1009.22,VALID,0,VALID,97.3656,VALID,0,VALID,24.8633,VALID,336,VALID,0,
2009-09-11, 00:47:05,VALID,1009.19,VALID,0,VALID,97.3504,VALID,0,VALID,24.8438,VALID,17,VALID,0.500391,
2009-09-11, 00:48:05,VALID,1009.17,VALID,0,VALID,97.3656,VALID,0,VALID,24.8049,VALID,58,VALID,0.536719,
2009-09-11, 00:49:05,VALID,1009.17,VALID,0,VALID,97.3809,VALID,0,VALID,24.7659,VALID,58,VALID,0.3,
2009-09-11, 00:50:05,VALID,1009.16,VALID,0,VALID,97.3656,VALID,0,VALID,24.7659,VALID,58,VALID,0,
2009-09-11, 00:51:05,VALID,1009.15,VALID,0,VALID,97.3427,VALID,0,VALID,24.7464,VALID,58,VALID,0,
2009-09-11, 00:52:05,VALID,1009.16,VALID,0,VALID,97.3427,VALID,0,VALID,24.7269,VALID,58,VALID,0,
2009-09-11, 00:53:05,VALID,1009.13,VALID,0,VALID,97.3275,VALID,0,VALID,24.7269,VALID,58,VALID,0,
2009-09-11, 00:54:05,VALID,1009.11,VALID,0,VALID,97.3046,VALID,0,VALID,24.7464,VALID,58,VALID,0,
2009-09-11, 00:55:05,VALID,1009.1,VALID,0,VALID,97.3199,VALID,0,VALID,24.7269,VALID,58,VALID,0,
2009-09-11, 00:56:05,VALID,1009.07,VALID,0,VALID,97.3351,VALID,0,VALID,24.6879,VALID,58,VALID,0,
2009-09-11, 00:57:05,VALID,1009.07,VALID,0,VALID,97.3122,VALID,0,VALID,24.7074,VALID,57,VALID,0,
2009-09-11, 00:58:05,VALID,1009.05,VALID,0,VALID,97.2741,VALID,0,VALID,24.7269,VALID,33,VALID,0,
2009-09-11, 00:59:05,VALID,1009.04,VALID,0,VALID,97.297,VALID,0,VALID,24.7269,VALID,23,VALID,0,
2009-09-11, 01:00:05,VALID,1008.99,VALID,0,VALID,97.2894,VALID,0,VALID,24.7269,VALID,23,VALID,0,
2009-09-11, 01:01:05,VALID,1009,VALID,0,VALID,97.2817,VALID,0,VALID,24.7464,VALID,23,VALID,0,
2009-09-11, 01:02:05,VALID,1009,VALID,0,VALID,97.3122,VALID,0,VALID,24.7269,VALID,23,VALID,0,
2009-09-11, 01:03:05,VALID,1008.98,VALID,0,VALID,97.3199,VALID,0,VALID,24.7074,VALID,23,VALID,0,
2009-09-11, 01:04:05,VALID,1008.98,VALID,0,VALID,97.3199,VALID,0,VALID,24.6879,VALID,23,VALID,0,
2009-09-11, 01:05:05,VALID,1008.98,VALID,0,VALID,97.3351,VALID,0,VALID,24.686,VALID,23,VALID,0,
2009-09-11, 01:06:05,VALID,1009,VALID,0,VALID,97.3199,VALID,0,VALID,24.7074,VALID,23,VALID,0,
2009-09-11, 01:07:05,VALID,1008.97,VALID,0,VALID,97.358,VALID,0.105969,VALID,24.6452,VALID,23,VALID,0,
2009-09-11, 01:08:05,VALID,1008.98,VALID,0,VALID,97.3656,VALID,0.105969,VALID,24.6471,VALID,23,VALID,0,
2009-09-11, 01:09:05,VALID,1009.01,VALID,0,VALID,97.3732,VALID,0.105969,VALID,24.6471,VALID,23,VALID,0,
2009-09-11, 01:10:05,VALID,1008.99,VALID,0,VALID,97.3656,VALID,0.105969,VALID,24.6081,VALID,23,VALID,0,
2009-09-11, 01:11:05,VALID,1008.99,VALID,0,VALID,97.3732,VALID,0.105969,VALID,24.6294,VALID,23,VALID,0,
2009-09-11, 01:12:05,VALID,1009,VALID,0,VALID,97.358,VALID,0.105969,VALID,24.5886,VALID,23,VALID,0,
2009-09-11, 01:13:05,VALID,1008.97,VALID,0,VALID,97.358,VALID,0,VALID,24.5691,VALID,23,VALID,0.196484,
2009-09-11, 01:14:05,VALID,1009,VALID,0,VALID,97.3656,VALID,0.105969,VALID,24.5496,VALID,23,VALID,0.208203,
2009-09-11, 01:15:05,VALID,1009.01,VALID,0,VALID,97.358,VALID,0.105969,VALID,24.5515,VALID,23,VALID,0,
2009-09-11, 01:16:05,VALID,1009,VALID,0,VALID,97.358,VALID,0.105969,VALID,24.5106,VALID,23,VALID,0,
2009-09-11, 01:17:05,VALID,1008.97,VALID,0,VALID,97.3732,VALID,0.105969,VALID,24.532,VALID,23,VALID,0,
2009-09-11, 01:18:05,VALID,1009,VALID,0,VALID,97.3732,VALID,0,VALID,24.4717,VALID,23,VALID,0,
2009-09-11, 01:19:05,VALID,1009,VALID,0,VALID,97.4037,VALID,0,VALID,24.4522,VALID,23,VALID,0,
2009-09-11, 01:20:05,VALID,1009.03,VALID,0,VALID,97.4037,VALID,0,VALID,24.4327,VALID,23,VALID,0,
2009-09-11, 01:21:05,VALID,1009.02,VALID,0,VALID,97.4114,VALID,0.105969,VALID,24.3919,VALID,23,VALID,0,
2009-09-11, 01:22:05,VALID,1009.03,VALID,0,VALID,97.3885,VALID,0,VALID,24.4169,VALID,23,VALID,0,
2009-09-11, 01:23:05,VALID,1009.03,VALID,0,VALID,97.3885,VALID,0,VALID,24.3742,VALID,23,VALID,0,
2009-09-11, 01:24:05,VALID,1009.07,VALID,0,VALID,97.3656,VALID,0,VALID,24.3956,VALID,23,VALID,0,
2009-09-11, 01:25:05,VALID,1009.05,VALID,0,VALID,97.3885,VALID,0,VALID,24.3761,VALID,350,VALID,0.3625,
2009-09-11, 01:26:05,VALID,1009.06,VALID,0,VALID,97.419,VALID,0,VALID,24.3566,VALID,350,VALID,0.619922,
2009-09-11, 01:27:05,VALID,1009.09,VALID,0,VALID,97.4114,VALID,0,VALID,24.3371,VALID,350,VALID,0.423047,
2009-09-11, 01:28:05,VALID,1009.11,VALID,0,VALID,97.4266,VALID,0,VALID,24.2981,VALID,350,VALID,0.346094,
2009-09-11, 01:29:05,VALID,1009.08,VALID,0,VALID,97.419,VALID,0,VALID,24.2786,VALID,350,VALID,0.046875,
2009-09-11, 01:30:05,VALID,1009.09,VALID,0,VALID,97.4114,VALID,0,VALID,24.2786,VALID,350,VALID,0.186328,
2009-09-11, 01:31:05,VALID,1009.06,VALID,0,VALID,97.4342,VALID,0,VALID,24.2591,VALID,350,VALID,0.207813,
2009-09-11, 01:32:05,VALID,1009.06,VALID,0,VALID,97.419,VALID,0,VALID,24.2396,VALID,350,VALID,0,
2009-09-11, 01:33:05,VALID,1009.04,VALID,0,VALID,97.419,VALID,0,VALID,24.2202,VALID,350,VALID,0.204297,
2009-09-11, 01:34:05,VALID,1009.04,VALID,0,VALID,97.4419,VALID,0,VALID,24.2007,VALID,350,VALID,0.153125,
2009-09-11, 01:35:05,VALID,1009.04,VALID,0,VALID,97.419,VALID,0,VALID,24.2007,VALID,350,VALID,0,
2009-09-11, 01:36:05,VALID,1009.03,VALID,0,VALID,97.4114,VALID,0,VALID,24.1812,VALID,350,VALID,0,
2009-09-11, 01:37:05,VALID,1008.99,VALID,0,VALID,97.4266,VALID,0,VALID,24.2007,VALID,350,VALID,0,
2009-09-11, 01:38:05,VALID,1008.98,VALID,0,VALID,97.4266,VALID,0,VALID,24.2025,VALID,350,VALID,0,
2009-09-11, 01:39:05,VALID,1009,VALID,0,VALID,97.4266,VALID,0,VALID,24.1404,VALID,350,VALID,0,
2009-09-11, 01:40:05,VALID,1008.98,VALID,0,VALID,97.3961,VALID,0,VALID,24.1617,VALID,350,VALID,0,
2009-09-11, 01:41:05,VALID,1008.96,VALID,0,VALID,97.4037,VALID,0,VALID,24.1617,VALID,350,VALID,0,
2009-09-11, 01:42:05,VALID,1008.98,VALID,0,VALID,97.4037,VALID,0,VALID,24.1422,VALID,350,VALID,0,
2009-09-11, 01:43:05,VALID,1008.98,VALID,0,VALID,97.4342,VALID,0,VALID,24.1227,VALID,350,VALID,0.309375,
2009-09-11, 01:44:05,VALID,1008.93,VALID,0,VALID,97.4419,VALID,0,VALID,24.1032,VALID,10,VALID,0.5625,
2009-09-11, 01:45:05,VALID,1008.98,VALID,0,VALID,97.4114,VALID,0,VALID,24.1032,VALID,22,VALID,0.307422,
2009-09-11, 01:46:05,VALID,1008.96,VALID,0,VALID,97.4342,VALID,0,VALID,24.0837,VALID,22,VALID,0,
2009-09-11, 01:47:05,VALID,1008.97,VALID,0,VALID,97.4266,VALID,0,VALID,24.0837,VALID,22,VALID,0,
2009-09-11, 01:48:05,VALID,1008.98,VALID,0,VALID,97.419,VALID,0,VALID,24.0643,VALID,22,VALID,0,
2009-09-11, 01:49:05,VALID,1008.98,VALID,0,VALID,97.4342,VALID,0,VALID,24.0643,VALID,22,VALID,0,
2009-09-11, 01:50:05,VALID,1008.98,VALID,0,VALID,97.4266,VALID,0,VALID,24.0429,VALID,22,VALID,0,
2009-09-11, 01:51:05,VALID,1008.98,VALID,0,VALID,97.4114,VALID,0,VALID,24.0643,VALID,20,VALID,0.411719,
2009-09-11, 01:52:05,VALID,1008.99,VALID,0,VALID,97.4266,VALID,0,VALID,24.0448,VALID,19,VALID,0.309766,
2009-09-11, 01:53:05,VALID,1009,VALID,0,VALID,97.419,VALID,0,VALID,24.0448,VALID,19,VALID,0.401172,
2009-09-11, 01:54:05,VALID,1008.98,VALID,0,VALID,97.4342,VALID,0,VALID,24.004,VALID,19,VALID,0.496094,
2009-09-11, 01:55:05,VALID,1008.97,VALID,0,VALID,97.4342,VALID,0,VALID,24.0253,VALID,18,VALID,0.677734,
2009-09-11, 01:56:05,VALID,1008.98,VALID,0,VALID,97.4342,VALID,0,VALID,23.9863,VALID,19,VALID,0.565234,
2009-09-11, 01:57:05,VALID,1008.99,VALID,0,VALID,97.4571,VALID,0,VALID,23.9863,VALID,24,VALID,0.522656,
2009-09-11, 01:58:05,VALID,1009,VALID,0,VALID,97.4266,VALID,0,VALID,23.9863,VALID,29,VALID,0.801562,
2009-09-11, 01:59:05,VALID,1009.01,VALID,0,VALID,97.419,VALID,0,VALID,23.9668,VALID,13,VALID,0.630469,
2009-09-11, 02:00:05,VALID,1009.05,VALID,0,VALID,97.419,VALID,0,VALID,23.9863,VALID,28,VALID,0.501172,
2009-09-11, 02:01:05,VALID,1009.06,VALID,0,VALID,97.419,VALID,0,VALID,23.9863,VALID,27,VALID,0.163672,
2009-09-11, 02:02:05,VALID,1009.04,VALID,0,VALID,97.4114,VALID,0,VALID,23.9668,VALID,27,VALID,0.157422,
2009-09-11, 02:03:05,VALID,1009.03,VALID,0,VALID,97.4037,VALID,0,VALID,23.9473,VALID,27,VALID,0.180859,
2009-09-11, 02:04:05,VALID,1009.06,VALID,0,VALID,97.4419,VALID,0,VALID,23.9473,VALID,27,VALID,0.263672,
2009-09-11, 02:05:05,VALID,1009.02,VALID,0,VALID,97.4037,VALID,0,VALID,23.9668,VALID,85,VALID,0.371094,
2009-09-11, 02:06:05,VALID,1008.99,VALID,0,VALID,97.3809,VALID,0,VALID,23.9668,VALID,48,VALID,0,
2009-09-11, 02:07:05,VALID,1008.97,VALID,0,VALID,97.4037,VALID,0.105969,VALID,23.9455,VALID,64,VALID,0,
2009-09-11, 02:08:05,VALID,1009,VALID,0,VALID,97.3885,VALID,0,VALID,23.965,VALID,59,VALID,0.529688,
2009-09-11, 02:09:05,VALID,1008.96,VALID,0,VALID,97.3809,VALID,0,VALID,23.965,VALID,57,VALID,0.654297,
2009-09-11, 02:10:05,VALID,1008.99,VALID,0,VALID,97.3961,VALID,0.105969,VALID,23.9863,VALID,57,VALID,0.223438,
2009-09-11, 02:11:05,VALID,1008.99,VALID,0,VALID,97.3961,VALID,0.105969,VALID,23.9455,VALID,57,VALID,0.466016,
2009-09-11, 02:12:05,VALID,1009.01,VALID,0,VALID,97.4114,VALID,0.105969,VALID,23.9455,VALID,57,VALID,0.329297,
2009-09-11, 02:13:05,VALID,1009.05,VALID,0,VALID,97.4114,VALID,0.105969,VALID,23.926,VALID,43,VALID,0.285547,
2009-09-11, 02:14:05,VALID,1009.07,VALID,0,VALID,97.4114,VALID,0.105969,VALID,23.926,VALID,43,VALID,0.317578,
2009-09-11, 02:15:05,VALID,1009.1,VALID,0,VALID,97.419,VALID,0,VALID,23.9065,VALID,43,VALID,0.317578,
2009-09-11, 02:16:05,VALID,1009.11,VALID,0,VALID,97.4037,VALID,0.105969,VALID,23.9065,VALID,43,VALID,0.0125,
2009-09-11, 02:17:05,VALID,1009.13,VALID,0,VALID,97.4037,VALID,0.105969,VALID,23.9065,VALID,48,VALID,0.244531,
2009-09-11, 02:18:05,VALID,1009.13,VALID,0,VALID,97.4114,VALID,0.105969,VALID,23.9065,VALID,48,VALID,0,
2009-09-11, 02:19:05,VALID,1009.09,VALID,0,VALID,97.3961,VALID,0.105969,VALID,23.9065,VALID,48,VALID,0.221875,
2009-09-11, 02:20:05,VALID,1009.1,VALID,0,VALID,97.3885,VALID,0.105969,VALID,23.9084,VALID,48,VALID,0.220313,
2009-09-11, 02:21:04,VALID,1009.1,VALID,0,VALID,97.3961,VALID,0.105969,VALID,23.8871,VALID,48,VALID,0.214453,
2009-09-11, 02:22:04,VALID,1009.08,VALID,0,VALID,97.4037,VALID,0,VALID,23.8907,VALID,48,VALID,0,
2009-09-11, 02:23:04,VALID,1009.08,VALID,0,VALID,97.3961,VALID,0,VALID,23.8499,VALID,48,VALID,0,
2009-09-11, 02:24:04,VALID,1009.11,VALID,0,VALID,97.4114,VALID,0,VALID,23.8499,VALID,48,VALID,0,
2009-09-11, 02:25:04,VALID,1009.13,VALID,0,VALID,97.4114,VALID,0,VALID,23.8712,VALID,108,VALID,0.222266,
2009-09-11, 02:26:04,VALID,1009.15,VALID,0,VALID,97.419,VALID,0,VALID,23.8304,VALID,108,VALID,0.265625,
2009-09-11, 02:27:04,VALID,1009.17,VALID,0,VALID,97.4266,VALID,0,VALID,23.8304,VALID,108,VALID,0.275391,
2009-09-11, 02:28:04,VALID,1009.17,VALID,0,VALID,97.3961,VALID,0,VALID,23.8304,VALID,108,VALID,0.203125,
2009-09-11, 02:29:04,VALID,1009.16,VALID,0,VALID,97.3809,VALID,0,VALID,23.8694,VALID,108,VALID,0.109766,
2009-09-11, 02:30:04,VALID,1009.17,VALID,0,VALID,97.3732,VALID,0,VALID,23.8499,VALID,108,VALID,0.065625,
2009-09-11, 02:31:04,VALID,1009.14,VALID,0,VALID,97.3961,VALID,0,VALID,23.8304,VALID,108,VALID,0.138672,
2009-09-11, 02:32:04,VALID,1009.14,VALID,0,VALID,97.358,VALID,0,VALID,23.8499,VALID,108,VALID,0,
2009-09-11, 02:33:04,VALID,1009.13,VALID,0,VALID,97.3809,VALID,0,VALID,23.8712,VALID,108,VALID,0.0921875,
2009-09-11, 02:34:04,VALID,1009.11,VALID,0,VALID,97.3809,VALID,0,VALID,23.8712,VALID,108,VALID,0.00351562,
2009-09-11, 02:35:04,VALID,1009.1,VALID,0,VALID,97.3961,VALID,0,VALID,23.8304,VALID,108,VALID,0,
2009-09-11, 02:36:04,VALID,1009.09,VALID,0,VALID,97.3809,VALID,0,VALID,23.8499,VALID,108,VALID,0,
2009-09-11, 02:37:04,VALID,1009.1,VALID,0,VALID,97.358,VALID,0,VALID,23.8517,VALID,108,VALID,0,
2009-09-11, 02:38:04,VALID,1009.08,VALID,0,VALID,97.3732,VALID,0,VALID,23.8304,VALID,108,VALID,0,
2009-09-11, 02:39:04,VALID,1009.07,VALID,0,VALID,97.3504,VALID,0,VALID,23.8499,VALID,108,VALID,0,
2009-09-11, 02:40:04,VALID,1009.07,VALID,0,VALID,97.3809,VALID,0,VALID,23.8499,VALID,108,VALID,0,
2009-09-11, 02:41:04,VALID,1009.06,VALID,0,VALID,97.3427,VALID,0,VALID,23.8712,VALID,100,VALID,0,
2009-09-11, 02:42:04,VALID,1009.05,VALID,0,VALID,97.358,VALID,0,VALID,23.8304,VALID,100,VALID,0,
2009-09-11, 02:43:04,VALID,1009.06,VALID,0,VALID,97.3732,VALID,0,VALID,23.8304,VALID,100,VALID,0,
2009-09-11, 02:44:04,VALID,1009.06,VALID,0,VALID,97.3732,VALID,0,VALID,23.8109,VALID,100,VALID,0,
2009-09-11, 02:45:04,VALID,1009.08,VALID,0,VALID,97.3809,VALID,0,VALID,23.8109,VALID,59,VALID,0,
2009-09-11, 02:46:04,VALID,1009.09,VALID,0,VALID,97.3885,VALID,0,VALID,23.8109,VALID,52,VALID,0,
2009-09-11, 02:47:04,VALID,1009.11,VALID,0,VALID,97.3656,VALID,0,VALID,23.8109,VALID,52,VALID,0,
2009-09-11, 02:48:04,VALID,1009.1,VALID,0,VALID,97.3885,VALID,0,VALID,23.7914,VALID,52,VALID,0,
2009-09-11, 02:49:04,VALID,1009.1,VALID,0,VALID,97.3732,VALID,0,VALID,23.8322,VALID,52,VALID,0,
2009-09-11, 02:50:04,VALID,1009.12,VALID,0,VALID,97.3656,VALID,0,VALID,23.7914,VALID,52,VALID,0,
2009-09-11, 02:51:04,VALID,1009.11,VALID,0,VALID,97.3732,VALID,0,VALID,23.7914,VALID,52,VALID,0,
2009-09-11, 02:52:04,VALID,1009.07,VALID,0,VALID,97.3656,VALID,0,VALID,23.7914,VALID,71,VALID,0.513672,
2009-09-11, 02:53:04,VALID,1009.06,VALID,0,VALID,97.3732,VALID,0,VALID,23.772,VALID,72,VALID,0.678516,
2009-09-11, 02:54:04,VALID,1009.03,VALID,0,VALID,97.3656,VALID,0,VALID,23.772,VALID,88,VALID,0.804297,
2009-09-11, 02:55:04,VALID,1009.05,VALID,0,VALID,97.3351,VALID,0,VALID,23.7932,VALID,84,VALID,0.440234,
2009-09-11, 02:56:04,VALID,1009.03,VALID,0,VALID,97.3504,VALID,0,VALID,23.772,VALID,75,VALID,0.667188,
2009-09-11, 02:57:04,VALID,1009.07,VALID,0,VALID,97.3351,VALID,0,VALID,23.772,VALID,75,VALID,0.614844,
2009-09-11, 02:58:04,VALID,1009.08,VALID,0,VALID,97.3351,VALID,0,VALID,23.772,VALID,75,VALID,0.551953,
2009-09-11, 02:59:04,VALID,1009.12,VALID,0,VALID,97.3427,VALID,0,VALID,23.7914,VALID,75,VALID,0.502344,
2009-09-11, 03:00:04,VALID,1009.12,VALID,0,VALID,97.3504,VALID,0,VALID,23.7525,VALID,94,VALID,0.615625,
2009-09-11, 03:01:04,VALID,1009.12,VALID,0,VALID,97.3275,VALID,0,VALID,23.772,VALID,83,VALID,0.426562,
2009-09-11, 03:02:04,VALID,1009.14,VALID,0,VALID,97.358,VALID,0,VALID,23.772,VALID,83,VALID,0.244531,
2009-09-11, 03:03:04,VALID,1009.15,VALID,0,VALID,97.358,VALID,0,VALID,23.7738,VALID,92,VALID,0.492578,
2009-09-11, 03:04:04,VALID,1009.1,VALID,0,VALID,97.3732,VALID,0,VALID,23.7525,VALID,101,VALID,0.453516,
2009-09-11, 03:05:04,VALID,1009.1,VALID,0,VALID,97.3504,VALID,0,VALID,23.7525,VALID,101,VALID,0.430469,
2009-09-11, 03:06:04,VALID,1009.08,VALID,0,VALID,97.358,VALID,0,VALID,23.7525,VALID,101,VALID,0.0804688,
2009-09-11, 03:07:04,VALID,1009.06,VALID,0,VALID,97.3351,VALID,0,VALID,23.7738,VALID,108,VALID,0.507813,
2009-09-11, 03:08:04,VALID,1009.05,VALID,0,VALID,97.3351,VALID,0,VALID,23.7525,VALID,108,VALID,0.0800781,
2009-09-11, 03:09:04,VALID,1009.07,VALID,0,VALID,97.3275,VALID,0,VALID,23.7525,VALID,108,VALID,0,
2009-09-11, 03:10:04,VALID,1009.08,VALID,0,VALID,97.3504,VALID,0,VALID,23.7525,VALID,108,VALID,0,
2009-09-11, 03:11:04,VALID,1009.08,VALID,0,VALID,97.3351,VALID,0,VALID,23.7525,VALID,108,VALID,0,
2009-09-11, 03:12:04,VALID,1009.08,VALID,0,VALID,97.3427,VALID,0,VALID,23.7738,VALID,108,VALID,0,
2009-09-11, 03:13:04,VALID,1009.09,VALID,0,VALID,97.3504,VALID,0,VALID,23.7525,VALID,108,VALID,0,
2009-09-11, 03:14:04,VALID,1009.11,VALID,0,VALID,97.3504,VALID,0,VALID,23.7543,VALID,108,VALID,0,
2009-09-11, 03:15:04,VALID,1009.13,VALID,0,VALID,97.3504,VALID,0,VALID,23.7525,VALID,108,VALID,0,
2009-09-11, 03:16:04,VALID,1009.12,VALID,0,VALID,97.3046,VALID,0,VALID,23.7738,VALID,108,VALID,0.0433594,
2009-09-11, 03:17:04,VALID,1009.13,VALID,0,VALID,97.3275,VALID,0,VALID,23.772,VALID,74,VALID,0.404687,
2009-09-11, 03:18:04,VALID,1009.16,VALID,0,VALID,97.3199,VALID,0,VALID,23.7738,VALID,74,VALID,0.112891,
2009-09-11, 03:19:04,VALID,1009.18,VALID,0,VALID,97.3427,VALID,0,VALID,23.7543,VALID,74,VALID,0,
2009-09-11, 03:20:04,VALID,1009.18,VALID,0,VALID,97.3275,VALID,0,VALID,23.772,VALID,74,VALID,0,
2009-09-11, 03:21:04,VALID,1009.16,VALID,0,VALID,97.3122,VALID,0,VALID,23.772,VALID,74,VALID,0,
2009-09-11, 03:22:04,VALID,1009.18,VALID,0,VALID,97.3046,VALID,0.105969,VALID,23.7896,VALID,74,VALID,0,
2009-09-11, 03:23:04,VALID,1009.17,VALID,0,VALID,97.3351,VALID,0.105969,VALID,23.7312,VALID,108,VALID,0.316016,
2009-09-11, 03:24:04,VALID,1009.18,VALID,0,VALID,97.358,VALID,0.105969,VALID,23.7312,VALID,108,VALID,0.145313,
2009-09-11, 03:25:04,VALID,1009.18,VALID,0,VALID,97.358,VALID,0.105969,VALID,23.733,VALID,108,VALID,0,
2009-09-11, 03:26:04,VALID,1009.17,VALID,0,VALID,97.3504,VALID,0.105969,VALID,23.7312,VALID,108,VALID,0,
2009-09-11, 03:27:04,VALID,1009.2,VALID,0,VALID,97.3427,VALID,0.211938,VALID,23.6922,VALID,108,VALID,0,
2009-09-11, 03:28:04,VALID,1009.18,VALID,0,VALID,97.3809,VALID,0.105969,VALID,23.6532,VALID,108,VALID,0,
2009-09-11, 03:29:04,VALID,1009.19,VALID,0,VALID,97.4037,VALID,0.105969,VALID,23.6143,VALID,108,VALID,0,
2009-09-11, 03:30:04,VALID,1009.19,VALID,0,VALID,97.4266,VALID,0.105969,VALID,23.5753,VALID,108,VALID,0,
2009-09-11, 03:31:04,VALID,1009.14,VALID,0,VALID,97.4571,VALID,0.105969,VALID,23.5558,VALID,108,VALID,0,
2009-09-11, 03:32:04,VALID,1009.16,VALID,0,VALID,97.4266,VALID,0.105969,VALID,23.5558,VALID,108,VALID,0,
2009-09-11, 03:33:04,VALID,1009.15,VALID,0,VALID,97.3732,VALID,0.105969,VALID,23.5753,VALID,108,VALID,0,
2009-09-11, 03:34:04,VALID,1009.16,VALID,0,VALID,97.358,VALID,0.105969,VALID,23.5966,VALID,108,VALID,0,
2009-09-11, 03:35:04,VALID,1009.19,VALID,0,VALID,97.3427,VALID,0.105969,VALID,23.5753,VALID,108,VALID,0,
2009-09-11, 03:36:04,VALID,1009.2,VALID,0,VALID,97.3427,VALID,0.105969,VALID,23.5948,VALID,108,VALID,0,
2009-09-11, 03:37:04,VALID,1009.2,VALID,0,VALID,97.3504,VALID,0,VALID,23.5771,VALID,108,VALID,0,
2009-09-11, 03:38:04,VALID,1009.19,VALID,0,VALID,97.3732,VALID,0.105969,VALID,23.5576,VALID,108,VALID,0,
2009-09-11, 03:39:04,VALID,1009.21,VALID,0,VALID,97.3504,VALID,0,VALID,23.5576,VALID,108,VALID,0,
2009-09-11, 03:40:04,VALID,1009.19,VALID,0,VALID,97.3046,VALID,0,VALID,23.5771,VALID,108,VALID,0.328125,
2009-09-11, 03:41:04,VALID,1009.19,VALID,0,VALID,97.2665,VALID,0,VALID,23.6373,VALID,108,VALID,0.374219,
2009-09-11, 03:42:04,VALID,1009.2,VALID,0,VALID,97.2436,VALID,0,VALID,23.655,VALID,108,VALID,0.132422,
2009-09-11, 03:43:04,VALID,1009.21,VALID,0,VALID,97.2512,VALID,0,VALID,23.6745,VALID,108,VALID,0.170312,
2009-09-11, 03:44:04,VALID,1009.19,VALID,0,VALID,97.2436,VALID,0,VALID,23.694,VALID,108,VALID,0.264453,
2009-09-11, 03:45:04,VALID,1009.2,VALID,0,VALID,97.2512,VALID,0,VALID,23.7135,VALID,108,VALID,0.258203,
2009-09-11, 03:46:04,VALID,1009.2,VALID,0,VALID,97.2589,VALID,0,VALID,23.694,VALID,108,VALID,0,
2009-09-11, 03:47:04,VALID,1009.24,VALID,0,VALID,97.2665,VALID,0,VALID,23.694,VALID,108,VALID,0,
2009-09-11, 03:48:04,VALID,1009.21,VALID,0,VALID,97.2894,VALID,0,VALID,23.6958,VALID,108,VALID,0.197266,
2009-09-11, 03:49:04,VALID,1009.2,VALID,0,VALID,97.2817,VALID,0,VALID,23.6745,VALID,108,VALID,0.178125,
2009-09-11, 03:50:04,VALID,1009.22,VALID,0,VALID,97.3122,VALID,0,VALID,23.6745,VALID,108,VALID,0.228125,
2009-09-11, 03:51:04,VALID,1009.2,VALID,0,VALID,97.3046,VALID,0,VALID,23.6745,VALID,108,VALID,0,
2009-09-11, 03:52:04,VALID,1009.19,VALID,0,VALID,97.2817,VALID,0.105969,VALID,23.6727,VALID,108,VALID,0.05625,